This is the latest recevied weather packets stored in our database for station/object KX4O-13. If no packets are shown the sender has not sent any weather packets the latest 10 day(s).
| Time | Temp. | Humidity | Pressure | Rain* | Wind** | Luminosity | Snow |
|---|---|---|---|---|---|---|---|
| 1778109651 | 20.56° C | 78% | 1007.7 hPa | 0 mm | - | 54 W/m² | - |
| 1778109351 | 20.56° C | 78% | 1007.6 hPa | 0 mm | - | 65 W/m² | - |
| 1778109053 | 20.56° C | 78% | 1007.7 hPa | 0 mm | - | 69 W/m² | - |
| 1778108751 | 20.56° C | 78% | 1007.7 hPa | 0 mm | - | 60 W/m² | - |
| 1778108451 | 20.56° C | 78% | 1007.8 hPa | 0 mm | - | 60 W/m² | - |
| 1778108151 | 20.56° C | 77% | 1007.8 hPa | 0 mm | - | 65 W/m² | - |
| 1778107851 | 20.56° C | 77% | 1007.8 hPa | 0 mm | - | 76 W/m² | - |
| 1778107551 | 20.56° C | 77% | 1007.7 hPa | 0 mm | - | 81 W/m² | - |
| 1778107251 | 20.56° C | 77% | 1007.7 hPa | 0 mm | - | 100 W/m² | - |
| 1778106951 | 20.56° C | 77% | 1007.8 hPa | 0 mm | - | 113 W/m² | - |
| 1778106653 | 21.11° C | 77% | 1007.6 hPa | 0 mm | - | 111 W/m² | - |
| 1778106351 | 21.11° C | 77% | 1007.6 hPa | 0 mm | - | 134 W/m² | - |
| 1778106051 | 21.11° C | 77% | 1007.6 hPa | 0 mm | - | 155 W/m² | - |
| 1778105751 | 21.11° C | 76% | 1007.7 hPa | 0 mm | - | 200 W/m² | - |
| 1778105451 | 21.11° C | 77% | 1007.9 hPa | 0 mm | - | 218 W/m² | - |
| 1778105151 | 20.56° C | 77% | 1007.8 hPa | 0 mm | - | 167 W/m² | - |
| 1778104851 | 20.56° C | 77% | 1007.6 hPa | 0 mm | - | 188 W/m² | - |
| 1778104551 | 20.56° C | 77% | 1007.6 hPa | 0 mm | - | 186 W/m² | - |
| 1778104253 | 20.56° C | 78% | 1007.7 hPa | 0 mm | - | 221 W/m² | - |
| 1778103951 | 20.56° C | 77% | 1007.7 hPa | 0 mm | - | 237 W/m² | - |
| 1778103651 | 20.56° C | 78% | 1007.8 hPa | 0 mm | - | 183 W/m² | - |
| 1778103351 | 20.56° C | 77% | 1007.7 hPa | 0 mm | - | 190 W/m² | - |
| 1778103051 | 20.56° C | 78% | 1007.6 hPa | 0 mm | - | 192 W/m² | - |
| 1778102751 | 20.56° C | 78% | 1007.6 hPa | 0 mm | - | 207 W/m² | - |
| 1778102451 | 20.56° C | 77% | 1007.6 hPa | 0 mm | - | 230 W/m² | - |
* Rain latest hour (hover to see other rain measurements)
** Current wind speed in m/s (hover to see current wind gust speed)